All
Enua Airport (Atiu (Enua Manu)) AIU Weather
|
Atiu (Enua Manu) (AIU / NCAT)
Clear skies
Light winds |
|
73 °F |
There is no TAF data available at AIU or any nearby airports.
Recent AIU METAR history
| Date | Time (-10) | Flight Rules | Wind Dir. | Speed | Type | Height AGL (ft) | Visibility | Temp (°C) | Temp (°F) | Dew Point (°C) | Dew Point (°F) | Rel. Humid. | Pressure | Density Altitude | Remarks |
|---|---|---|---|---|---|---|---|---|---|---|---|---|---|---|---|
| 05-Sep | 05:30AM | n/a | 40° | 5 kt | Missing | 23° | 73° | 21° | 69° | 89% | 1013 mb | 1,017 ft | |||
| 05-Sep | 05:00AM | n/a | 50° | 5 kt | Missing | 23° | 73° | 21° | 69° | 89% | 1013 mb | 1,017 ft | |||
| 05-Sep | 04:30AM | n/a | 50° | 5 kt | Missing | 23° | 73° | 21° | 69° | 89% | 1013 mb | 1,017 ft | |||
| 05-Sep | 04:00AM | n/a | 50° | 6 kt | Missing | 23° | 73° | 21° | 69° | 89% | 1013 mb | 1,017 ft | |||
| 05-Sep | 03:30AM | n/a | 50° | 5 kt | Missing | 23° | 73° | 21° | 69° | 89% | 1013 mb | 1,017 ft | |||
| 05-Sep | 03:00AM | n/a | 50° | 6 kt | Missing | 23° | 73° | 21° | 69° | 89% | 1013 mb | 1,017 ft | |||
| 05-Sep | 02:30AM | n/a | 40° | 8 kt | Missing | 23° | 73° | 21° | 69° | 89% | 1013 mb | 1,017 ft | |||
| 05-Sep | 02:00AM | n/a | 50° | 6 kt | Missing | 23° | 73° | 21° | 69° | 89% | 1013 mb | 1,017 ft | |||
| 05-Sep | 01:30AM | n/a | 60° | 5 kt | Missing | 23° | 73° | 21° | 69° | 89% | 1014 mb | 988 ft | |||
| 05-Sep | 01:00AM | n/a | 60° | 7 kt | Missing | 23° | 73° | 21° | 69° | 89% | 1014 mb | 988 ft | |||
| 05-Sep | 12:30AM | n/a | 70° | 4 kt | Missing | 23° | 73° | 21° | 69° | 89% | 1015 mb | 958 ft | |||
| 05-Sep | 12:00AM | n/a | 70° | 4 kt | Missing | 23° | 73° | 21° | 69° | 89% | 1015 mb | 958 ft | |||
| 04-Sep | 11:30PM | n/a | 80° | 4 kt | Missing | 23° | 73° | 21° | 69° | 89% | 1015 mb | 958 ft | |||
| 04-Sep | 11:00PM | n/a | 80° | 4 kt | Missing | 23° | 73° | 21° | 69° | 89% | 1015 mb | 958 ft | |||
| 04-Sep | 10:30PM | n/a | 60° | 3 kt | Missing | 23° | 73° | 21° | 69° | 89% | 1015 mb | 958 ft | |||
| 04-Sep | 10:00PM | n/a | 90° | 4 kt | Missing | 23° | 73° | 21° | 69° | 89% | 1015 mb | 958 ft | |||
| 04-Sep | 09:30PM | n/a | 110° | 3 kt | Missing | 23° | 73° | 21° | 69° | 89% | 1015 mb | 958 ft | |||
| 04-Sep | 09:00PM | n/a | 130° | 3 kt | Missing | 23° | 73° | 21° | 69° | 89% | 1015 mb | 958 ft | |||
| 04-Sep | 08:30PM | n/a | 140° | 3 kt | Missing | 23° | 73° | 21° | 69° | 89% | 1015 mb | 958 ft | |||
| 04-Sep | 08:00PM | n/a | 130° | 3 kt | Missing | 23° | 73° | 21° | 69° | 89% | 1015 mb | 958 ft | |||
| 04-Sep | 07:30PM | n/a | 120° | 3 kt | Missing | 23° | 73° | 21° | 69° | 89% | 1015 mb | 958 ft | |||
| 04-Sep | 07:00PM | n/a | 110° | 3 kt | Missing | 23° | 73° | 21° | 69° | 89% | 1014 mb | 988 ft | |||
| 04-Sep | 06:30PM | n/a | 150° | 3 kt | Missing | 23° | 73° | 21° | 69° | 89% | 1014 mb | 988 ft | |||
| 04-Sep | 06:00PM | n/a | 120° | 3 kt | Missing | 24° | 75° | 21° | 69° | 83% | 1014 mb | 1,108 ft |
Login
| Your browser is unsupported. upgrade your browser |
